EW4692 Weather Reports


time (UTC)temp
C
wind
direction
speed
KPH
gust
KPH
rain 1hr
cm
rain 24hr
cm
rain mn
cm
humidity
%
barometer
mb
20260503215206 16 97 6.4 20.9 0.00 0.00 0.00 67 1014.1
20260503214705 16 109 6.4 20.9 0.00 0.00 0.00 67 1014.1
20260503214524 16 130 4.8 19.3 0.00 0.00 0.00 66 1014.4
20260503214206 16 132 9.7 20.9 0.00 0.00 0.00 66 1014.1
20260503213705 16 64 9.7 19.3 0.00 0.00 0.00 66 1014.1
20260503213205 16 84 9.7 19.3 0.00 0.00 0.00 66 1014.0
20260503213015 16 95 8.0 19.3 0.00 0.00 0.00 66 1014.4
20260503212705 16 113 9.7 19.3 0.00 0.00 0.00 66 1014.1
20260503212206 16 84 9.7 16.1 0.00 0.00 0.00 66 1014.1
20260503211705 16 93 8.0 16.1 0.00 0.00 0.00 66 1014.2
20260503211514 16 106 6.4 16.1 0.00 0.00 0.00 66 1014.6
20260503210205 16 99 8.0 19.3 0.00 0.00 0.00 66 1014.4
20260503210036 16 130 6.4 19.3 0.00 0.00 0.00 66 1014.8
20260503205705 17 106 9.7 19.3 0.00 0.00 0.00 66 1014.3
20260503205205 17 92 8.0 19.3 0.00 0.00 0.00 66 1014.3
20260503204705 17 83 9.7 16.1 0.00 0.00 0.00 66 1014.2
20260503204513 16 129 8.0 16.1 0.00 0.00 0.00 66 1014.6
20260503204205 17 81 8.0 22.5 0.00 0.00 0.00 66 1014.3
20260503203205 17 90 11.3 22.5 0.00 0.00 0.00 65 1014.2
20260503203014 16 98 14.5 22.5 0.00 0.00 0.00 65 1014.5
20260503202705 17 88 11.3 22.5 0.00 0.00 0.00 65 1014.2
20260503202206 17 95 11.3 22.5 0.00 0.00 0.00 65 1014.1
20260503201705 17 92 9.7 20.9 0.00 0.00 0.00 65 1014.1
20260503201513 16 118 9.7 20.9 0.00 0.00 0.00 65 1014.4
20260503201205 17 92 9.7 20.9 0.00 0.00 0.00 65 1014.1
20260503200705 17 154 11.3 20.9 0.00 0.00 0.00 65 1014.2
20260503200206 17 98 11.3 20.9 0.00 0.00 0.00 64 1014.2
20260503200016 16 96 11.3 20.9 0.00 0.00 0.00 64 1014.6
20260503195705 17 132 9.7 19.3 0.00 0.00 0.00 64 1014.2
20260503195206 17 94 9.7 20.9 0.00 0.00 0.00 64 1014.1
20260503194705 17 128 9.7 20.9 0.00 0.00 0.00 64 1014.1
20260503194512 16 122 8.0 17.7 0.00 0.00 0.00 63 1014.5
20260503194206 17 85 9.7 20.9 0.00 0.00 0.00 63 1014.1
20260503193011 16 129 9.7 27.4 0.00 0.00 0.00 63 1014.3
20260503192206 17 84 9.7 24.1 0.00 0.00 0.00 63 1013.9
20260503191705 16 65 8.0 20.9 0.00 0.00 0.00 63 1013.9
20260503191510 16 107 8.0 17.7 0.00 0.00 0.00 63 1014.3
20260503191205 16 111 8.0 22.5 0.00 0.00 0.00 64 1013.9
20260503190705 16 76 8.0 29.0 0.00 0.00 0.00 64 1013.9
20260503190206 17 130 9.7 29.0 0.00 0.00 0.00 64 1013.8
20260503190012 16 119 6.4 22.5 0.00 0.00 0.00 64 1014.1
20260503185706 17 95 11.3 29.0 0.00 0.00 0.00 65 1013.8
20260503185206 17 115 9.7 22.5 0.00 0.00 0.00 65 1013.8
20260503184705 17 114 9.7 20.9 0.00 0.00 0.00 65 1013.8
20260503184510 16 94 8.0 19.3 0.00 0.00 0.00 65 1014.2
20260503184206 17 86 11.3 20.9 0.00 0.00 0.00 65 1013.8
20260503183706 17 88 11.3 22.5 0.00 0.00 0.00 65 1013.8
20260503183206 17 69 11.3 22.5 0.00 0.00 0.00 65 1013.6
20260503183008 17 55 9.7 22.5 0.00 0.00 0.00 65 1014.0
20260503181705 17 98 14.5 27.4 0.00 0.00 0.00 65 1013.6
20260503181507 17 101 16.1 27.4 0.00 0.00 0.00 65 1014.0
20260503180705 17 84 11.3 29.0 0.00 0.00 0.00 65 1013.7
20260503180205 17 125 14.5 29.0 0.00 0.00 0.00 64 1013.8
20260503180006 17 100 14.5 29.0 0.00 0.00 0.00 64 1014.2
20260503175206 17 92 11.3 30.6 0.00 0.00 0.00 64 1013.9
20260503174705 17 150 11.3 30.6 0.00 0.00 0.00 64 1013.9
20260503174504 17 122 9.7 30.6 0.00 0.00 0.00 64 1014.3
20260503174206 17 128 12.9 24.1 0.00 0.00 0.00 63 1013.9
20260503173705 17 78 12.9 38.6 0.00 0.00 0.00 63 1013.9
20260503173206 17 77 12.9 38.6 0.00 0.00 0.00 63 1013.9
20260503173004 17 69 11.3 38.6 0.00 0.00 0.00 64 1014.3
20260503172705 17 123 12.9 35.4 0.00 0.00 0.00 63 1013.9
20260503172206 17 77 12.9 35.4 0.00 0.00 0.00 63 1013.8
20260503171705 17 64 12.9 27.4 0.00 0.00 0.00 63 1013.9
20260503171503 17 69 12.9 32.2 0.00 0.00 0.00 63 1014.2
20260503171206 17 101 12.9 27.4 0.00 0.00 0.00 63 1013.8
20260503170705 17 151 12.9 27.4 0.00 0.00 0.00 63 1014.0
20260503170206 17 113 14.5 27.4 0.00 0.00 0.00 63 1014.1
20260503160205 18 77 16.1 32.2 0.00 0.00 0.00 62 1014.1
20260503150205 18 69 14.5 29.0 0.00 0.00 0.00 59 1014.5
20260503140205 19 117 17.7 35.4 0.00 0.00 0.00 59 1014.9
20260503131205 19 103 16.1 29.0 0.00 0.00 0.00 57 1015.3
20260503130705 19 108 14.5 35.4 0.00 0.00 0.00 56 1015.3
20260503130205 19 112 12.9 35.4 0.00 0.00 0.00 57 1015.3
20260503120205 19 132 14.5 27.4 0.00 0.00 0.00 58 1015.9
20260503110705 18 107 17.7 38.6 0.00 0.00 0.00 58 1016.2
20260503110205 18 117 17.7 38.6 0.00 0.00 0.00 57 1016.2
20260503090205 18 105 14.5 27.4 0.00 0.00 0.00 59 1015.7
20260503081543 17 116 6.4 22.5 0.00 0.00 0.00 61 1016.1
20260503081205 18 105 9.7 20.9 0.00 0.00 0.00 61 1015.8
20260503080705 18 62 9.7 25.7 0.00 0.00 0.00 61 1015.8
20260503080205 17 98 11.3 25.7 0.00 0.00 0.00 61 1015.7
20260503072706 17 111 12.9 24.1 0.00 0.00 0.00 61 1015.7
20260503072205 17 71 12.9 24.1 0.00 0.00 0.00 61 1015.7
20260503071705 17 118 11.3 22.5 0.00 0.00 0.00 61 1015.6
20260503071533 17 81 11.3 22.5 0.00 0.00 0.00 61 1015.9
20260503071206 17 86 11.3 22.5 0.00 0.00 0.00 61 1015.5
20260503070206 17 122 11.3 27.4 0.00 0.00 0.00 61 1015.6
20260503060205 17 116 12.9 27.4 0.00 0.00 0.00 62 1015.1
20260503054705 17 86 12.9 25.7 0.00 0.00 0.00 63 1015.1
20260503054512 16 99 11.3 25.7 0.00 0.00 0.00 63 1015.4
20260503054205 17 119 12.9 19.3 0.00 0.00 0.00 63 1015.1
20260503053205 17 104 9.7 17.7 0.00 0.00 0.00 63 1014.9
20260503053008 16 113 9.7 19.3 0.00 0.00 0.00 63 1015.3
20260503052705 16 74 9.7 17.7 0.00 0.00 0.00 63 1015.0
20260503051705 16 90 8.0 24.1 0.00 0.00 0.00 63 1014.9
20260503051503 16 84 9.7 16.1 0.00 0.00 0.00 63 1015.3
20260503051205 16 165 8.0 24.1 0.00 0.00 0.00 63 1014.9
20260503050705 16 125 11.3 20.9 0.00 0.00 0.00 64 1014.9
20260503050002 16 108 9.7 20.9 0.00 0.00 0.00 65 1015.2
20260503045705 16 86 8.0 20.9 0.00 0.00 0.00 65 1014.8
20260503045206 16 80 9.7 20.9 0.00 0.00 0.00 66 1014.8
20260503044705 16 67 8.0 17.7 0.00 0.00 0.00 66 1014.8
20260503044559 16 105 9.7 20.9 0.00 0.00 0.00 66 1015.1
20260503044206 16 80 8.0 17.7 0.00 0.00 0.00 66 1014.7
20260503043705 16 43 9.7 29.0 0.00 0.00 0.00 66 1014.8
20260503043205 16 159 9.7 29.0 0.00 0.00 0.00 66 1014.7
20260503043101 16 92 11.3 17.7 0.00 0.00 0.00 66 1015.1
20260503042705 16 74 9.7 29.0 0.00 0.00 0.00 66 1014.8
20260503041705 16 88 8.0 22.5 0.00 0.00 0.00 65 1014.9
20260503041556 16 106 6.4 14.5 0.00 0.00 0.00 65 1015.2
20260503041205 16 99 9.7 22.5 0.00 0.00 0.00 65 1014.9
20260503040705 16 90 9.7 19.3 0.00 0.00 0.00 65 1014.9
20260503040205 16 156 9.7 29.0 0.00 0.00 0.00 64 1015.0
20260503040054 16 69 6.4 17.7 0.00 0.00 0.00 64 1015.4
20260503035705 17 65 11.3 30.6 0.00 0.00 0.00 64 1015.1
20260503034705 17 143 9.7 30.6 0.00 0.00 0.00 64 1015.1
20260503034554 16 94 4.8 30.6 0.00 0.00 0.00 64 1015.5
20260503034205 17 125 11.3 24.1 0.00 0.00 0.00 64 1015.1
20260503033705 17 76 8.0 19.3 0.00 0.00 0.00 65 1015.1
20260503033205 17 132 8.0 16.1 0.00 0.00 0.00 65 1015.1
20260503033052 16 115 6.4 17.7 0.00 0.00 0.00 65 1015.4
20260503032205 17 104 6.4 16.1 0.00 0.00 0.00 65 1015.2
20260503031725 17 85 4.8 20.9 0.00 0.00 0.00 65 1015.3
20260503031601 16 60 4.8 11.3 0.00 0.00 0.00 65 1015.6
20260503031205 17 153 6.4 20.9 0.00 0.00 0.00 65 1015.2
20260503030706 17 121 6.4 20.9 0.00 0.00 0.00 65 1015.4
20260503030206 17 104 4.8 12.9 0.00 0.00 0.00 65 1015.3
20260503030051 16 124 3.2 12.9 0.00 0.00 0.00 64 1015.6
20260503025705 17 82 4.8 17.7 0.00 0.00 0.00 64 1015.3
20260503025207 17 82 6.4 17.7 0.00 0.00 0.00 65 1015.4
20260503024705 17 107 4.8 17.7 0.00 0.00 0.00 64 1015.5
20260503024550 16 92 3.2 17.7 0.00 0.00 0.00 64 1015.9
20260503023205 17 48 8.0 25.7 0.00 0.00 0.00 64 1015.5
20260503023052 16 96 6.4 19.3 0.00 0.00 0.00 64 1015.8
20260503022705 17 98 9.7 25.7 0.00 0.00 0.00 64 1015.4
20260503022206 17 89 6.4 25.7 0.00 0.00 0.00 64 1015.5
20260503021705 17 103 6.4 22.5 0.00 0.00 0.00 64 1015.5
20260503021550 16 159 4.8 16.1 0.00 0.00 0.00 64 1015.9
20260503021205 17 138 9.7 22.5 0.00 0.00 0.00 64 1015.5
20260503020705 17 123 11.3 22.5 0.00 0.00 0.00 64 1015.5
20260503020205 17 138 9.7 17.7 0.00 0.00 0.00 65 1015.6
20260503020057 16 119 9.7 20.9 0.00 0.00 0.00 65 1016.0
20260503015705 17 111 9.7 20.9 0.00 0.00 0.00 65 1015.6
20260503014705 17 111 11.3 25.7 0.00 0.00 0.00 66 1015.5
20260503014553 16 101 9.7 22.5 0.00 0.00 0.00 66 1015.9
20260503013705 17 113 9.7 29.0 0.00 0.00 0.00 66 1015.4
20260503013205 17 153 11.3 29.0 0.00 0.00 0.00 66 1015.6
20260503013046 16 55 8.0 29.0 0.00 0.00 0.00 66 1015.9
20260503012705 17 72 11.3 25.7 0.00 0.00 0.00 66 1015.6
20260503011705 17 94 12.9 24.1 0.00 0.00 0.00 66 1015.6
20260503011557 17 105 11.3 25.7 0.00 0.00 0.00 66 1015.9
20260503011205 17 109 11.3 22.5 0.00 0.00 0.00 66 1015.6
20260503010205 17 123 11.3 25.7 0.00 0.00 0.00 66 1015.8
20260503010043 17 130 8.0 25.7 0.00 0.00 0.00 66 1016.3
20260503005705 17 98 9.7 25.7 0.00 0.00 0.00 66 1015.9
20260503005206 17 115 9.7 22.5 0.00 0.00 0.00 66 1015.9
20260503004705 17 115 9.7 22.5 0.00 0.00 0.00 66 1016.0
20260503004542 16 81 9.7 22.5 0.00 0.00 0.00 66 1016.3
20260503004205 17 79 9.7 24.1 0.00 0.00 0.00 66 1016.0
20260503003705 17 97 11.3 24.1 0.00 0.00 0.00 66 1016.1
20260503003205 17 117 9.7 24.1 0.00 0.00 0.00 66 1016.2
20260503003039 17 95 9.7 22.5 0.00 0.00 0.00 66 1016.5
20260503002705 17 173 8.0 24.1 0.00 0.00 0.00 66 1016.3
20260503002206 17 83 9.7 24.1 0.00 0.00 0.00 66 1016.3
20260503001705 17 89 12.9 22.5 0.00 0.00 0.00 65 1016.3
20260503001538 17 155 11.3 22.5 0.00 0.00 0.00 65 1016.7
20260503001205 17 98 11.3 24.1 0.00 0.00 0.00 65 1016.3
20260503000705 17 88 11.3 24.1 0.00 0.00 0.00 64 1016.4
20260503000205 17 107 12.9 24.1 0.00 0.00 0.00 65 1016.4
20260503000045 16 123 11.3 24.1 0.00 0.00 0.00 65 1016.9
20260502235705 17 81 11.3 25.7 0.00 0.00 0.00 65 1016.6
20260502235206 17 137 8.0 25.7 0.00 0.00 0.00 66 1016.6
20260502234705 17 120 9.7 25.7 0.00 0.00 0.00 66 1016.7
20260502234536 16 69 6.4 24.1 0.00 0.00 0.00 66 1017.0
20260502234206 17 88 11.3 19.3 0.00 0.00 0.00 66 1016.6
20260502233705 17 88 9.7 17.7 0.00 0.00 0.00 66 1016.6
20260502233205 17 78 9.7 19.3 0.00 0.00 0.00 66 1016.6
20260502233034 16 103 8.0 17.7 0.00 0.00 0.00 66 1017.0
20260502232705 17 98 9.7 19.3 0.00 0.00 0.00 66 1016.6
20260502232206 17 89 9.7 17.7 0.00 0.00 0.00 66 1016.8
20260502231705 17 88 8.0 17.7 0.00 0.00 0.00 66 1016.9
20260502231533 17 99 8.0 17.7 0.00 0.00 0.00 66 1017.2
20260502230032 17 92 4.8 30.6 0.00 0.00 0.00 64 1017.4
20260502225206 17 116 14.5 29.0 0.00 0.00 0.00 64 1016.7
20260502224705 17 115 17.7 30.6 0.00 0.00 0.00 64 1016.8
20260502224532 17 125 14.5 30.6 0.00 0.00 0.00 64 1017.1
20260502224206 17 115 16.1 30.6 0.00 0.00 0.00 64 1016.8
20260502223705 17 109 14.5 30.6 0.00 0.00 0.00 65 1016.9
20260502223205 17 119 14.5 30.6 0.00 0.00 0.00 65 1017.1
20260502223029 17 161 16.1 30.6 0.00 0.00 0.00 65 1017.4
20260502222705 17 130 11.3 25.7 0.00 0.00 0.00 65 1017.3
20260502222204 17 138 11.3 25.7 0.00 0.00 0.00 66 1017.3
20260502221705 17 130 9.7 25.7 0.00 0.00 0.00 66 1017.3
20260502221532 17 133 9.7 27.4 0.00 0.00 0.00 66 1017.7
20260502221206 17 153 9.7 20.9 0.00 0.00 0.00 66 1017.4
20260502220206 17 121 9.7 24.1 0.00 0.00 0.00 66 1017.3
20260502220023 17 75 11.3 19.3 0.00 0.00 0.00 66 1017.6
20260502215705 17 111 9.7 24.1 0.00 0.00 0.00 66 1017.3